SYRACUSE 3B

Last updated on Jan. 17, 2020, 4:31 a.m. UTC

1 29273U 06033B   20016.36666949 -.00000047  00000-0  00000+0 0  9994
2 29273   0.0192  62.5880 0003392 245.6642 293.8155  1.00270940 49247
UTC
Height (km)
Latitude
Longitude
Inclination
Orbital Period
UTC large
Height (km)
Speed (km/s)
/
Latitude / Longitude
Inclination (degrees)
Orbital Period (minutes)
Azimuth
Elevation
Range (km)
Doppler Factor
iOS Compass Heading
iOS Angle

Next 30 passes for location: Hong Kong

Rise time Rise Azimuth (degrees) Set time Set Azimuth (degrees) Duration Max altitude (degrees)

No matching passes for this satellites